Location: Unspecified
(0.0000°N, 0.0000°E)
Time: 13:59:50
(UTC+02:00)

Hubble Space Telescope - Pass Details

Date: 08 December 2017
Orbit: 537 x 541 km, 28.5° (Epoch: 22 July)

Event Time Altitude Azimuth Distance (km) Brightness Sun altitude
Exits shadow 04:10:49 11° 132° (SE) 1,725 4.0 -36.6°
Drops below altitude 10° 04:10:58 10° 132° (SE) 1,781 4.1 -36.6°
Sets 04:13:16 0° 127° (SE) 2,672 5.3 -36.0°
